Flag for Canada Weather past 2 weeks in Stonewall, Manitoba, Canada

Now
-15 °F

Passing clouds.


Feels Like: -31 °F
Forecast: -20 / -5 °F
Wind: 7 mph from North

Location: Winnipeg Int. Airportman.

Current Time: Jan 31, 2015 at 10:57:28 PM

Latest Report: Jan 31, 2015 at 10:00 PM


Visibility: 15 mi

Pressure: 30.71 "Hg

Humidity: 63%

Dew point: -24 °F

Location of StonewallLocation

Historic Weather in Stonewall — Graph

°F

Stonewall temperature yesterday

Maximum temperature yesterday: 18 °F (at 4:00 PM)
Minimum temperature yesterday: 1 °F (at 12:00 AM)
Average temperature yesterday: 10 °F

Past Weeks' High & Low Weather Summary

 TemperatureHumidityPressure
High37 °F (Jan 22, 7:00 PM)100% (Jan 27, 11:00 AM)30.70 "Hg (Jan 27, 11:00 AM)
Low-13 °F (Jan 31, 7:00 PM)52% (Jan 31, 9:00 PM)29.36 "Hg (Jan 17, 3:00 AM)
Average19 °F80%30.03 "Hg
* Reported Jan 16 9:00 PM — Jan 31 9:00 PM, Stonewall, Weather by CustomWeather, © 2014

Note: Actual official high and low records may vary slightly from our data, if they occured in-between our weather recording intervals... More about our weather records

Advertising

Stonewall weather history for previous 24 hours

 ConditionsComfort  
Time TempWeatherWind HumidityBarometerVisibility
9:00 PM
Jan 31
-13 °FClear.9 mph52%30.70 "Hg15 mi
8:00 PM-13 °FClear.9 mph57%30.70 "Hg15 mi
7:00 PM-13 °FClear.7 mph63%30.70 "Hg15 mi
6:00 PM-11 °FPassing clouds.14 mph58%30.69 "Hg15 mi
5:00 PM-11 °FPassing clouds.15 mph58%30.67 "Hg15 mi
4:00 PM-9 °FPassing clouds.18 mph53%30.66 "Hg15 mi
3:00 PM-9 °FScattered clouds.15 mph58%30.66 "Hg15 mi
2:00 PM-9 °FPassing clouds.15 mph64%30.65 "Hg15 mi
1:00 PM-9 °FPassing clouds.18 mph64%30.66 "Hg15 mi
12:00 PM-9 °FSnow flurries. Scattered clouds.17 mph64%30.67 "Hg6 mi
11:00 AM-11 °FSnow flurries. Scattered clouds.17 mph70%30.66 "Hg6 mi
10:00 AM-11 °FSnow flurries. Scattered clouds.17 mph70%30.64 "Hg6 mi
9:00 AM-9 °FScattered clouds.16 mph64%30.61 "Hg15 mi
8:00 AM-9 °FPassing clouds.16 mph70%30.58 "Hg15 mi
7:00 AM-8 °FPassing clouds.16 mph70%30.55 "Hg15 mi
6:00 AM-6 °FPassing clouds.18 mph64%30.53 "Hg15 mi
5:00 AM-4 °FPassing clouds.21 mph65%30.47 "Hg15 mi
4:00 AM0 °FPassing clouds.16 mph71%30.47 "Hg15 mi
3:00 AM1 °FPassing clouds.17 mph71%30.43 "Hg15 mi
2:00 AM3 °FPassing clouds.18 mph72%30.40 "Hg15 mi
1:00 AM5 °FPassing clouds.15 mph78%30.40 "Hg15 mi
12:00 AM7 °FPassing clouds.16 mph72%30.40 "Hg15 mi
11:00 PM
Jan 30
9 °FPassing clouds.20 mph72%30.37 "Hg15 mi
10:00 PM14 °FOvercast.20 mph73%30.32 "Hg15 mi
Weather by CustomWeather, © 2014

See weather overviewHow to use our weather pages